星链-5663 (STARLINK-5663 )

导读 | 星芒AI

STARLINK-5663 是 SpaceX Starlink 项目中的一颗低轨道通信卫星,属于第 22 批 Starlink 卫星发射任务的一部分。该卫星于 2023 年发射,运行在约 550 公里的高度,旨在为全球用户提供高速互联网服务。Starlink 卫星采用先进推进系统和激光通信技术,支持高效数据传输和网络连接。该项目致力于改善偏远地区的网络覆盖,同时推动全球宽带服务的普及。STARLINK-5663 的运行有助于增强 Starlink 网络的稳定性和覆盖范围。

基本信息
目录编号:
55347
目录名称:
STARLINK-5663
国际标识:
2023-013S
轨道中心:
EARTH
卫星名称:
星链-5663
卫星全名:
星链-5663 (STARLINK-5663 )
卫星状态:
在轨 (已飞行1060 天)
发射日期:
2023-01-26 UTC
国别 :
美国 (US)
星等 :
--
轨道信息
数据来源 国际轨道数据
星历时间: 2025-12-21T09:34:58+0800
13小时前
查看轨道信息
半长轴: 6937.218km
偏心率: 0.0001138
轨道倾角: 43.006°
近地点辐角 260.916°
升交点赤经 7.440°
平近点角 99.155°
近地点: 558.291km
远地点: 559.871km
周期: 95.838分钟
每日圈数: 15.025358
详细信息
固有亮度:
5
最大亮度:
2.5
卫星平台:
Starlink v1.5
覆盖范围:
全球
运营商:
太空探索技术公司
运营商所在国:
美国
制造商(研发单位):
太空探索技术公司
制造商所在国:
美国
使用方式:
暂无
卫星简介
星链(Starlink)计划是由太空探索技术公司(SpaceX)提出的一个巨型低轨卫星互联网星座项目,计划在2019年至2024年间在太空搭建由约1.2万颗卫星组成的“星链”网络,其中1584颗将部署在地球上空550千米处的近地轨道,并从2020年开始工作。该卫星仍在工作。
2D轨道图
3D轨道图
轨道高度分析图
轨道倾角分析图
轨道综合分析图
查看轨道综合分析图